Regional Weather Roundup
Issued by NWS

Home | Current Version | Previous Version | Graphics & Text | Print | Product List | Glossary On
Versions: 1 2 3 4 5 6 7 8 9 10 11 12 13 14 15 16 17 18 19 20 21 22 23 24 25 26 27 28 29 30 31 32 33 34 35 36 37 38 39 40 41 42 43 44 45 46 47 48 49 50
000
ASUS43 KLSX 301759
RWRMO

WEATHER SUMMARY FOR MISSOURI
NATIONAL WEATHER SERVICE SPRINGFIELD MO
100 PM CDT SAT AUG 30 2014

NOTE: "FAIR" INDICATES FEW OR NO CLOUDS BELOW 12,000 FEET WITH NO
       SIGNIFICANT WEATHER AND/OR OBSTRUCTIONS TO VISIBILITY.
       CURRENT SKY AND/OR WEATHER CONDITIONS ARE NOT AVAILABLE FOR
       CHILLICOTHE AND FARMINGTON.

MOZ001>031-035>038-043-044-053-054-301900-
...NORTHERN AND WESTERN MISSOURI...

CITY           SKY/WX    TMP DP  RH WIND       PRES   REMARKS
KANSAS CTY INT MOSUNNY   82  68  62 N5        29.94F
6HR MIN TEMP:  66; 6HR MAX TEMP:  83;

KANSAS C DTWN  MOSUNNY   85  67  54 W5        29.92F
6HR MIN TEMP:  71; 6HR MAX TEMP:  85;

LEE`S SUMMIT   SUNNY     83  68  60 CALM      29.94F
6HR MIN TEMP:  69; 6HR MAX TEMP:  83;

ST JOSEPH      SUNNY     82  69  64 VRB5      29.93F
6HR MIN TEMP:  68; 6HR MAX TEMP:  82;

KIRKSVILLE     PTSUNNY   81  68  64 W8        29.94S
6HR MIN TEMP:  68; 6HR MAX TEMP:  82;


$$
MOZ066>068-077>081-088>096-101>105-301900-
...SOUTHWEST MISSOURI...

CITY           SKY/WX    TMP DP  RH WIND       PRES   REMARKS
SPRINGFIELD    MOSUNNY   86  68  54 SW10      29.96F
6HR MIN TEMP:  71; 6HR MAX TEMP:  87; 6HR PCP: TRACE;

JOPLIN         CLOUDY    86  67  52 SW9       29.95F
6HR MIN TEMP:  72; 6HR MAX TEMP:  87;


$$
MOZ032>034-039>042-045>050-055>058-069>072-301900-
...CENTRAL MISSOURI...

CITY           SKY/WX    TMP DP  RH WIND       PRES   REMARKS
COLUMBIA       MOSUNNY   87  71  58 SW6       29.93F HX  93
6HR MIN TEMP:  70; 6HR MAX TEMP:  87;

JEFFERSON CITY MOSUNNY   86  70  58 SW9       29.91F HX  90
6HR MIN TEMP:  71; 6HR MAX TEMP:  86;

ROLLA          PTSUNNY   82  69  64 SE12      29.95F
6HR MIN TEMP:  69; 6HR MAX TEMP:  83;

SEDALIA        MOSUNNY   86  68  54 S8        29.94F
6HR MIN TEMP:  72; 6HR MAX TEMP:  87;

OSAGE BEACH    MOSUNNY   82  68  61 SW6       29.95F

$$
MOZ051-052-059>065-301900-
...EAST CENTRAL MISSOURI...

CITY           SKY/WX    TMP DP  RH WIND       PRES   REMARKS
ST LOUIS INTL  PTSUNNY   83  72  69 SW15      29.95F
6HR MIN TEMP:  76; 6HR MAX TEMP:  84;

SPIRIT OF STL  PTSUNNY   82  73  74 SW10      29.93F
6HR MIN TEMP:  72; 6HR MAX TEMP:  82; 6HR PCP: TRACE;

ST CHARLES     PTSUNNY   82  73  74 S12       29.93F
6HR MIN TEMP:  71; 6HR MAX TEMP:  82;


$$
MOZ072>076-082>087-097>100-106>115-301900-
...SOUTH CENTRAL AND SOUTHEAST MISSOURI...

CITY           SKY/WX    TMP DP  RH WIND       PRES   REMARKS
CAPE GIRARDEAU CLOUDY    82  75  79 SW9       30.00F
6HR MIN TEMP:  73; 6HR MAX TEMP:  82; 6HR PCP:  0.09;

FARMINGTON     CLOUDY    79  70  73 SW13      30.02S
6HR MIN TEMP:  70; 6HR MAX TEMP:  79;

POPLAR BLUFF   CLOUDY    80  71  74 SW10      29.99F
6HR MIN TEMP:  73; 6HR MAX TEMP:  80; 6HR PCP: TRACE;

WEST PLAINS    PTSUNNY   79  69  71 SW9       30.02F
6HR MIN TEMP:  71; 6HR MAX TEMP:  79; 6HR PCP:  0.01;


$$



USA.gov is the U.S. government's official web portal to all federal, state and local government web resources and services.